Mojave, CA

7:20 PM PST on February 21, 2018 (GMT -0800)
Mojave

Weather History for KMHV - August, 2014

Change the Weather History Date:

Thursday, August 28, 2014

  Actual Average Record
Temperature  
Mean Temperature 84 °F -  
Max Temperature 98 °F 94 °F 105 °F (2017)
Min Temperature 71 °F 64 °F 53 °F (1973)
Cooling Degree Days 20    
Growing Degree Days 34 (Base 50)    
Moisture  
Dew Point 36 °F    
Average Humidity 18    
Maximum Humidity 29    
Minimum Humidity 10    
Precipitation  
Precipitation 0.00 in - - ()
Sea Level Pressure  
Sea Level Pressure 30.05 in    
Wind  
Wind Speed 13 mph (West)    
Max Wind Speed 24 mph    
Max Gust Speed 30 mph    
Visibility 10 miles    
Events      
Averages and records for this station are not official NWS values.
T = Trace of Precipitation, MM = Missing Value Source: NWS Daily Summary

Daily Weather History Graph

Daily Weather History Graph

Search for Another Location

Airport or City:

Trip Planner

Search our weather history database for the weather conditions in past years. The results will help you decide how hot, cold, wet, or windy it might be!

Date:

Astronomy

Aug. 28, 2014 Rise Set
Actual Time 6:22 AM PDT 7:24 PM PDT
Civil Twilight 5:56 AM PDT 7:50 PM PDT
Nautical Twilight 5:25 AM PDT 8:21 PM PDT
Astronomical Twilight 4:53 AM PDT 8:53 PM PDT
Moon 9:10 AM PDT (8/28) 9:00 PM PDT (8/28)
Length of Visible Light 13h 54m
Length of Day
13h 02m
Waxing Crescent, 9% of the Moon is Illuminated
Aug 28
Waxing Crescent
Sep 2
First Quarter
Sep 8
Full
Sep 15
Last Quarter
Sep 23
New

Hourly Weather History & Observations

Time (PDT) Temp. Dew Point Humidity Pressure Visibility Wind Dir Wind Speed Gust Speed Precip Events Conditions
12:15 AM 78.8 °F 37.4 °F 23% 30.10 in 10.0 mi West 21.9 mph - N/A   Clear
12:35 AM 78.8 °F 37.4 °F 23% 30.10 in 10.0 mi West 23.0 mph - N/A   Clear
12:55 AM 78.8 °F 37.4 °F 23% 30.11 in 10.0 mi West 18.4 mph 24.2 mph N/A   Clear
1:15 AM 77.0 °F 37.4 °F 24% 30.11 in 10.0 mi West 15.0 mph 25.3 mph N/A   Clear
1:35 AM 77.0 °F 37.4 °F 24% 30.10 in 10.0 mi West 15.0 mph 23.0 mph N/A   Clear
1:55 AM 77.0 °F 37.4 °F 24% 30.10 in 10.0 mi WSW 13.8 mph - N/A   Clear
2:15 AM 77.0 °F 37.4 °F 24% 30.10 in 10.0 mi West 10.4 mph - N/A   Clear
2:35 AM 77.0 °F 37.4 °F 24% 30.10 in 10.0 mi SW 11.5 mph - N/A   Clear
2:55 AM 75.2 °F 37.4 °F 25% 30.10 in 10.0 mi WSW 8.1 mph - N/A   Clear
3:15 AM 77.0 °F 37.4 °F 24% 30.09 in 10.0 mi WSW 11.5 mph - N/A   Clear
3:35 AM 75.2 °F 37.4 °F 25% 30.09 in 10.0 mi West 10.4 mph - N/A   Clear
3:55 AM 75.2 °F 37.4 °F 25% 30.09 in 10.0 mi WSW 10.4 mph - N/A   Clear
4:15 AM 75.2 °F 37.4 °F 25% 30.09 in 10.0 mi West 8.1 mph - N/A   Clear
4:35 AM 75.2 °F 37.4 °F 25% 30.09 in 10.0 mi NW 5.8 mph - N/A   Clear
4:55 AM 73.4 °F 37.4 °F 27% 30.09 in 10.0 mi Calm Calm - N/A   Clear
5:15 AM 73.4 °F 37.4 °F 27% 30.09 in 10.0 mi SSW 5.8 mph - N/A   Clear
5:35 AM 73.4 °F 37.4 °F 27% 30.09 in 10.0 mi WSW 3.5 mph - N/A   Clear
5:55 AM 73.4 °F 37.4 °F 27% 30.09 in 10.0 mi WSW 5.8 mph - N/A   Clear
6:15 AM 73.4 °F 37.4 °F 27% 30.10 in 10.0 mi WSW 10.4 mph - N/A   Clear
6:35 AM 73.4 °F 37.4 °F 27% 30.10 in 10.0 mi Calm Calm - N/A   Clear
6:55 AM 71.6 °F 37.4 °F 29% 30.11 in 10.0 mi Calm Calm - N/A   Clear
7:15 AM 73.4 °F 37.4 °F 27% 30.11 in 10.0 mi North 5.8 mph - N/A   Clear
7:55 AM 78.8 °F 37.4 °F 23% 30.11 in 10.0 mi NNW 5.8 mph - N/A   Clear
8:15 AM 78.8 °F 37.4 °F 23% 30.12 in 10.0 mi NNE 4.6 mph - N/A   Clear
8:35 AM 78.8 °F 37.4 °F 23% 30.12 in 10.0 mi NE 4.6 mph - N/A   Clear
8:55 AM 80.6 °F 37.4 °F 21% 30.12 in 10.0 mi NE 5.8 mph - N/A   Clear
9:15 AM 82.4 °F 37.4 °F 20% 30.12 in 10.0 mi ENE 5.8 mph - N/A   Clear
9:35 AM 82.4 °F 37.4 °F 20% 30.12 in 10.0 mi ENE 5.8 mph - N/A   Clear
9:55 AM 84.2 °F 37.4 °F 19% 30.12 in 10.0 mi ENE 5.8 mph - N/A   Clear
10:15 AM 86.0 °F 37.4 °F 18% 30.12 in 10.0 mi East 5.8 mph - N/A   Clear
10:35 AM 86.0 °F 37.4 °F 18% 30.12 in 10.0 mi ESE 8.1 mph - N/A   Clear
10:55 AM 87.8 °F 37.4 °F 17% 30.11 in 10.0 mi SE 5.8 mph - N/A   Clear
11:15 AM 89.6 °F 37.4 °F 16% 30.11 in 10.0 mi East 4.6 mph - N/A   Clear
11:35 AM 89.6 °F 35.6 °F 15% 30.10 in 10.0 mi Calm Calm - N/A   Clear
11:55 AM 91.4 °F 35.6 °F 14% 30.09 in 10.0 mi NE 3.5 mph - N/A   Clear
12:15 PM 93.2 °F 37.4 °F 14% 30.08 in 10.0 mi SSE 4.6 mph - N/A   Clear
12:35 PM 93.2 °F 35.6 °F 13% 30.07 in 10.0 mi NE 10.4 mph - N/A   Clear
12:55 PM 93.2 °F 35.6 °F 13% 30.06 in 10.0 mi ENE 5.8 mph - N/A   Clear
1:15 PM 95.0 °F 35.6 °F 12% 30.05 in 10.0 mi East 8.1 mph - N/A   Clear
1:35 PM 95.0 °F 33.8 °F 12% 30.05 in 10.0 mi East 3.5 mph - N/A   Clear
1:55 PM 95.0 °F 33.8 °F 12% 30.04 in 10.0 mi ENE 3.5 mph - N/A   Clear
2:15 PM 95.0 °F 32.0 °F 11% 30.03 in 10.0 mi Calm Calm - N/A   Clear
2:35 PM 98.6 °F 32.0 °F 10% 30.02 in 10.0 mi NW 4.6 mph - N/A   Clear
2:55 PM 98.6 °F 32.0 °F 10% 30.01 in 10.0 mi West 9.2 mph 20.7 mph N/A   Clear
3:15 PM 98.6 °F 32.0 °F 10% 30.00 in 10.0 mi West 15.0 mph 19.6 mph N/A   Clear
3:35 PM 98.6 °F 32.0 °F 10% 30.00 in 10.0 mi West 17.3 mph - N/A   Clear
3:55 PM 98.6 °F 32.0 °F 10% 29.99 in 10.0 mi WNW 20.7 mph 25.3 mph N/A   Clear
4:15 PM 98.6 °F 32.0 °F 10% 29.99 in 10.0 mi West 18.4 mph 26.5 mph N/A   Clear
4:35 PM 98.6 °F 32.0 °F 10% 29.98 in 10.0 mi West 18.4 mph 27.6 mph N/A   Clear
4:55 PM 96.8 °F 32.0 °F 10% 29.98 in 10.0 mi West 17.3 mph - N/A   Clear
5:15 PM 96.8 °F 35.6 °F 12% 29.97 in 10.0 mi West 21.9 mph 27.6 mph N/A   Clear
5:35 PM 95.0 °F 35.6 °F 12% 29.97 in 10.0 mi West 21.9 mph 25.3 mph N/A   Clear
5:55 PM 95.0 °F 35.6 °F 12% 29.96 in 10.0 mi West 24.2 mph 27.6 mph N/A   Clear
6:15 PM 93.2 °F 35.6 °F 13% 29.97 in 10.0 mi WNW 16.1 mph 24.2 mph N/A   Clear
6:35 PM 93.2 °F 37.4 °F 14% 29.97 in 10.0 mi West 19.6 mph 27.6 mph N/A   Clear
6:55 PM 91.4 °F 37.4 °F 15% 29.96 in 10.0 mi West 21.9 mph 27.6 mph N/A   Clear
7:15 PM 89.6 °F 41.0 °F 18% 29.97 in 10.0 mi West 19.6 mph 25.3 mph N/A   Clear
7:35 PM 87.8 °F 41.0 °F 19% 29.98 in 10.0 mi West 21.9 mph 26.5 mph N/A   Clear
7:55 PM 86.0 °F 41.0 °F 20% 29.97 in 10.0 mi West 20.7 mph 27.6 mph N/A   Clear
8:15 PM 86.0 °F 39.2 °F 19% 29.98 in 10.0 mi West 20.7 mph 28.8 mph N/A   Clear
8:35 PM 86.0 °F 35.6 °F 17% 29.99 in 10.0 mi West 18.4 mph 24.2 mph N/A   Clear
8:55 PM 84.2 °F 32.0 °F 15% 29.99 in 10.0 mi West 23.0 mph 26.5 mph N/A   Clear
9:15 PM 84.2 °F 30.2 °F 14% 29.99 in 10.0 mi WNW 20.7 mph 28.8 mph N/A   Clear
9:35 PM 84.2 °F 28.4 °F 13% 30.00 in 10.0 mi West 23.0 mph 26.5 mph N/A   Clear
9:55 PM 84.2 °F 28.4 °F 13% 30.00 in 10.0 mi West 17.3 mph 26.5 mph N/A   Clear
10:15 PM 82.4 °F 28.4 °F 14% 29.99 in 10.0 mi WNW 24.2 mph 28.8 mph N/A   Clear
10:35 PM 82.4 °F 30.2 °F 15% 29.99 in 10.0 mi WNW 19.6 mph 29.9 mph N/A   Clear
10:55 PM 82.4 °F 32.0 °F 16% 29.99 in 10.0 mi West 18.4 mph 26.5 mph N/A   Clear
11:15 PM 82.4 °F 32.0 °F 16% 29.99 in 10.0 mi WNW 17.3 mph 29.9 mph N/A   Clear
11:35 PM 82.4 °F 32.0 °F 16% 29.99 in 10.0 mi West 17.3 mph - N/A   Clear
11:55 PM 82.4 °F 32.0 °F 16% 29.98 in 10.0 mi West 20.7 mph 26.5 mph N/A   Clear